Location: Weymouth Pines Observatory
(42.9326°N, 81.3883°W)
Time: 20:17:41
(UTC-04:00)

Daily predictions for brighter satellites

Satellite Brightness Start Highest point End
(mag) Time Altitude Azimuth Time Altitude Azimuth Time Altitude Azimuth
ATLAS CENTAUR R/B 4.2 19:27:31 10° SSE 19:32:03 32° ESE 19:43:20 10° NE
NOSS 3-2 (C) 4.5 19:38:13 10° SSE 19:42:51 23° ESE 19:47:45 10° ENE
Cosmos 1371 Rocket 4.1 19:39:24 10° NNW 19:44:39 61° ENE 19:49:55 10° SSE
Resurs 01 Rocket 2.3 19:42:16 10° SE 19:46:18 35° ENE 19:50:22 10° N
Meteor 2-5 Rocket 3.7 19:40:45 10° N 19:46:28 86° E 19:52:01 10° S
SAR-Lupe-1 4.0 19:43:09 10° SSE 19:46:40 66° ENE 19:50:13 10° N
Okean 3 Rocket 3.8 19:45:34 10° N 19:50:01 52° ENE 19:54:26 10° SSE
Cosmos 1441 Rocket 3.1 19:48:17 10° N 19:52:03 89° W 19:55:47 10° S
Resurs 1-3 4.4 19:48:58 10° SE 19:52:50 32° ENE 19:56:44 10° N
Cosmos 2219 Rocket 2.8 19:47:52 10° SW 19:53:26 63° WNW 19:59:04 10° NNE
ALOS 3.4 19:50:12 10° ESE 19:53:57 25° ENE 19:57:45 10° NNE
Helios 1B rocket 3.1 19:50:17 10° NNE 19:53:59 32° E 19:57:40 10° SSE
Cosmos 2278 Rocket 2.4 19:48:41 10° NNW 19:54:22 82° WSW 20:00:01 10° SSE
Meteor 1-24 Rocket 3.8 19:49:26 10° N 19:55:06 59° ENE 20:00:31 10° SSE
Aureole 2 Rocket 3.7 19:52:09 10° SSE 19:56:04 33° ESE 19:59:58 10° NE
Cosmos 2297 3.9 19:51:11 10° NNW 19:56:45 54° ENE 20:02:16 10° SE
SJ-6B 2.8 19:52:56 10° SSE 19:56:52 80° ENE 20:00:55 10° N
FREGAT/IRIS 2.7 19:54:06 10° SSE 19:57:08 59° ENE 20:00:12 10° N
Meteor 1-28 Rocket 3.1 19:56:57 10° NNE 20:00:40 68° E 20:04:21 10° S
Cosmos 1707 2.9 19:57:20 10° N 20:01:12 77° W 20:05:01 10° S
Cosmos 1624 Rocket 4.0 19:57:45 10° NNW 20:02:59 72° ENE 20:08:09 10° SSE
Cosmos 1378 3.3 20:02:17 10° N 20:05:56 49° E 20:09:33 10° SSE
METEOR-M 4.1 20:01:02 10° SSE 20:06:20 67° ENE 20:11:39 10° N
FENGYUN 3A 4.2 20:05:24 10° SE 20:10:17 38° ENE 20:15:13 10° N
Cosmos 2369 Rocket 4.0 20:11:07 10° NNE 20:14:04 14° NE 20:16:33 11° ENE
Meteor 1-29 3.3 20:11:52 10° NNE 20:15:15 43° E 20:18:36 10° S
CZ-4C R/B 2.5 20:10:45 10° SW 20:16:04 70° NW 20:22:07 10° NNE
HJ-1C 3.3 20:14:53 10° SSE 20:18:14 78° ENE 20:21:37 10° N
ATLAS CENTAUR R/B 1.5 20:14:23 10° NW 20:18:39 74° WSW 20:22:32 10° SSE
FengYun 1-2 T 4.2 20:15:13 10° SSE 20:20:40 63° ENE 20:26:06 10° N
USA 215 3.3 20:15:13 10° NE 20:21:48 86° SE 20:28:20 10° SW
Cosmos 2333 Rocket 3.3 20:18:59 10° SW 20:24:33 48° WNW 20:30:08 10° NNE
Atlas Centaur 2 4.2 20:18:42 10° WSW 20:25:52 31° S 20:31:49 12° SE
Meteor 1-21 Rocket 4.5 20:25:54 10° N 20:31:16 46° ENE 20:36:13 12° SSE
Cosmos 1452 Rocket 3.7 20:26:59 10° N 20:32:07 51° ENE 20:36:02 17° SE
USA 186 3.7 20:36:59 11° NNE 20:36:59 11° NNE 20:37:04 10° NNE
ERS-1 Rocket 4.2 20:34:26 20° E 20:35:28 22° ENE 20:39:14 10° NNE
Cosmos 2034 Rocket 4.0 20:30:53 10° S 20:37:00 63° E 20:43:15 10° NNE
Helios 1A 3.2 20:33:23 10° S 20:37:33 73° WSW 20:41:46 10° NNW
Cosmos 1464 Rocket 4.0 20:34:38 10° S 20:40:55 89° E 20:47:09 10° N
Meteor 2-12 Rocket 4.5 20:36:34 10° S 20:42:34 58° E 20:48:36 10° NNE
ATLAS 3B R/B 4.4 20:37:01 10° WSW 20:43:51 35° NW 20:50:30 10° NNE
SeaSat 1 2.7 20:40:42 10° NE 20:45:26 44° ESE 20:50:08 10° S
Cosmos 1766 4.1 20:43:17 10° SSW 20:47:09 53° W 20:51:04 10° N
Cosmos 1674 3.7 20:44:49 10° NNE 20:47:52 29° ENE 20:47:52 29° ENE
Cosmos 1766 Rocket 3.5 20:44:40 10° N 20:49:06 87° WSW 20:53:26 10° S
In-Cosmos 22 4.2 20:43:46 10° N 20:49:34 88° E 20:55:21 10° S
Cosmos 1346 4.1 20:51:58 10° N 20:53:53 32° NNE 20:53:53 32° NNE
Cosmos 2237 Rocket 4.0 20:50:34 10° WSW 20:55:40 33° NW 21:00:48 10° N
Cosmos 192 4.4 20:51:03 10° SSW 20:55:59 84° WNW 21:00:59 10° NNE
H-2A R/B 4.2 20:57:31 13° NE 20:57:31 13° NE 20:58:45 10° NNE
NOSS 3-2 (A) 3.5 20:50:36 10° SW 20:56:41 88° NW 21:03:23 10° NE
Cosmos 1420 Rocket 4.3 20:52:04 10° N 20:57:12 48° ENE 20:58:50 36° ESE
CZ-4B DEB 4.4 20:57:48 49° SE 20:58:38 72° ENE 21:02:15 10° N
Cosmos 1953 2.2 20:55:00 10° S 20:58:59 88° W 21:02:59 10° N
CZ-4B DEB 3.2 20:57:57 23° S 20:59:48 61° W 21:03:03 10° NNW
CZ-2D R/B 3.3 21:01:16 25° S 21:03:28 80° WSW 21:07:24 10° NNW
Cosmos 1269 Rocket 4.1 21:03:05 10° S 21:08:08 49° ESE 21:13:14 10° NNE
BREEZE-M DEB (TANK) 3.7 20:57:51 10° W 21:10:59 69° N 21:12:53 38° ENE
ATLAS 5 CENTAUR R/B 1.7 21:06:37 10° SSW 21:11:23 78° ESE 21:16:20 11° NE
SL-16 R/B 3.0 21:07:46 10° SW 21:13:18 51° WNW 21:18:52 10° NNE
Cosmos 724 4.2 21:07:29 10° SSW 21:13:18 64° ESE 21:19:19 10° NE
Cosmos 1048 Rocket 4.4 21:12:21 10° S 21:18:35 43° ENE 21:22:34 10° NNE
Cosmos-2242 3.6 21:15:54 10° SSW 21:20:11 59° W 21:24:32 10° N
Cosmos 1842 Rocket 3.9 21:23:00 48° NNE 21:23:00 48° NNE 21:26:17 10° NNE
Cosmos 1805 4.3 21:18:27 10° SSW 21:22:13 45° WNW 21:26:02 10° N
Resurs 01 Rocket 4.0 21:19:19 10° SSW 21:22:51 23° W 21:26:23 10° NW
Cosmos 1500 Rocket 3.4 21:19:58 10° N 21:24:24 79° E 21:24:24 79° E
H-2A R/B 3.8 21:23:12 24° SSW 21:25:09 44° W 21:28:54 10° NNW
Envisat 3.2 21:27:01 52° ENE 21:27:01 52° ENE 21:31:41 10° N
ALOS 3.7 21:26:56 10° SSW 21:31:13 36° W 21:35:32 10° NNW
NOSS 3-2 (C) 3.8 21:27:01 10° SW 21:33:05 66° NW 21:39:46 10° NNE
ASTEX 1 4.2 21:33:17 10° N 21:38:03 50° W 21:42:45 10° SSW
Cosmos 1655 Rocket 4.1 21:37:28 10° N 21:43:17 56° ENE 21:43:17 56° ENE
Cosmos 2151 4.4 21:39:58 10° N 21:42:10 30° N 21:42:10 30° N
GP-B 3.8 21:50:38 10° N 21:54:30 52° WNW 21:54:30 52° WNW
Cosmos 1092 Rocket 4.4 21:51:25 10° NNW 21:57:32 59° W 22:00:04 35° SSW
Cosmos 2369 Rocket 2.3 21:53:26 10° NNW 21:58:21 65° N 21:58:21 65° N
Cosmos 2142 Rocket 4.5 21:58:09 53° SSW 21:59:48 83° W 22:06:15 10° N
Cosmos 1603 4.3 21:54:33 10° SW 22:00:10 56° WNW 22:05:51 10° NNE
USA 215 4.4 21:58:34 10° NE 22:04:24 38° NNW 22:10:19 10° W
Cosmos 1634 Rocket 4.3 22:09:54 41° SW 22:12:02 63° W 22:18:15 10° N
ERS-1 Rocket 3.8 22:14:26 47° W 22:14:26 47° W 22:18:47 10° NNW
Cosmos 1943 Rocket 3.4 22:09:05 10° NNW 22:12:33 33° NNE 22:12:33 33° NNE
Cosmos 2026 Rocket 4.0 22:09:25 10° N 22:15:08 73° WNW 22:15:08 73° WNW
Exosat Rocket 4.4 22:09:51 10° NNW 22:16:22 88° ENE 22:16:54 80° SE
SeaSat 1 4.3 22:18:35 10° N 22:22:46 28° NW 22:26:55 10° WSW
Cosmos 839 Rocket 4.3 22:22:43 10° NW 22:29:59 71° W 22:29:59 71° W
H-2A R/B 4.4 22:34:40 21° NNW 22:34:40 21° NNW 22:36:12 10° NNW
H-2A R/B 4.4 22:55:26 16° N 22:55:26 16° N 22:56:28 10° N
ATLAS 5 CENTAUR R/B 4.2 22:52:57 10° W 22:56:44 21° NW 22:58:05 19° NNW
